Location: Bishopstone
(51.0167°N, 1.9000°W)
Time: 05:34:30
(UTC+00:00)

Cosmos 407 Rocket - Pass Details

Date: 16 September 2019
Orbit: 744 x 786 km, 74.0° (Epoch: 22 October)

Event Time Altitude Azimuth Distance (km) Brightness Sun altitude
Rises 19:23:56 0° 338° (NNW) 3,213 7.4 -10.6°
Reaches altitude 10° 19:26:25 10° 344° (NNW) 2,280 6.4 -11.0°
Maximum altitude 19:31:22 46° 58° (ENE) 1,003 3.8 -11.7°
Enters shadow 19:35:13 16° 127° (SE) 1,877 4.9 -12.3°
